Location: Allison Elementary School
(34.0784°N, 117.7317°W)
Time: 21:26:03
(UTC+00:00)

SMAP - Pass Details

Date: 15 November 2019
Orbit: 682 x 683 km, 98.1° (Epoch: 10 December)

Event Time Altitude Azimuth Distance (km) Brightness Sun altitude
Rises 01:44:50 0° 179° (S) 3,028 6.6 -12.1°
Reaches altitude 10° 01:47:07 10° 185° (S) 2,117 5.8 -12.5°
Maximum altitude 01:51:36 49° 260° (W) 883 4.1 -13.4°
Drops below altitude 10° 01:56:07 10° 335° (NNW) 2,130 5.8 -14.3°
Sets 01:58:26 0° 341° (NNW) 3,049 6.5 -14.8°
